Regional Weather Roundup
Issued by NWS Midland/Odessa, TX

Home | Current Version | Previous Version | Text Only | Print | Product List | Glossary On
Versions: 1 2 3 4 5 6 7 8 9 10 11 12 13 14 15 16 17 18 19 20 21 22 23 24 25 26 27 28 29 30 31 32 33 34 35 36 37 38 39 40 41 42 43 44 45 46 47 48 49 50
000
ASUS44 KMAF 200310
RWRMAF
MIDLAND AREA WEATHER ROUNDUP
NATIONAL WEATHER SERVICE MIDLAND TX
900 PM CST SUN FEB 19 2017

...IN SOUTHWEST TEXAS AND SOUTHEAST NEW MEXICO...

CITY           SKY/WX    TMP DP  RH WIND       PRES   REMARKS
ALPINE         MOCLDY    52  23  32 SW5       30.04R
ANDREWS        FAIR      51  42  71 SW5       29.89R
ARTESIA        CLEAR     52  27  37 W16       29.91R
BIG SPRING     CLOUDY    55  49  80 S7        29.93R
CARLSBAD       CLEAR     53  27  36 W10       29.91R
DRYDEN           N/A     57  53  86 SW7       29.90R
FORT STOCKTON  CLOUDY    55  30  38 W5        29.91R
GUAD PASS      CLEAR     45  26  47 W22       29.98R WCI  37
HOBBS          MOCLDY    50  27  40 W9        29.89F
MARFA          CLEAR     47  22  37 W9        30.01R
MIDLAND AIRPK  CLOUDY    55  47  76 S3        29.92R
MIDLAND INTL   PTCLDY    54  47  77 S5        29.91R
ODESSA         PTCLDY    52  44  74 S6        29.91R
PECOS          PTCLDY    51  26  36 W8        29.91R
PRESIDIO       FAIR      61  37  41 NE6       29.97R
SEMINOLE       PTCLDY    51  32  48 W6        29.90R
SNYDER         CLOUDY    61  43  52 SW10      29.86R
WINK           CLOUDY    57  26  30 W9        29.88R
$$
...OTHER STATIONS IN TEXAS...

CITY           SKY/WX    TMP DP  RH WIND       PRES   REMARKS
ABILENE        LGT RAIN  56  51  84 NW6       29.88R
AMARILLO       PTCLDY    50  41  71 S9        29.83S
AUSTIN         CLOUDY    74  67  78 SE13      29.81S
BROWNSVILLE    CLOUDY    76  72  87 SE20G29   29.76S
CORPUS CHRISTI CLOUDY    74  72  93 SE22G30   29.73F
DALLAS FTW     MOCLDY    71  66  84 SE16      29.81S
DEL RIO        CLOUDY    60  55  83 N12G23    29.78F
EL PASO        PTCLDY    54  29  38 W18       29.99R
HOUSTON INT    LGT RAIN  70  68  93 SE14      29.89F FOG
LUBBOCK        CLOUDY    54  43  66 SW12      29.86S
SAN ANGELO     LGT RAIN  58  50  75 S7        29.91R
SAN ANTONIO    CLOUDY    73  67  81 E10       29.78S
WACO           MOCLDY    72  65  78 SE15      29.83R
WICHITA FALLS  NOT AVBL
$$
...OTHER LOCATIONS IN NEW MEXICO...

CITY           SKY/WX    TMP DP  RH WIND       PRES   REMARKS
ALAMAGORDO     CLOUDY    48  28  46 S7        30.01R
ALBUQUERQUE    CLOUDY    47  30  51 NW14      29.95R
CANNON AFB     PTCLDY    43  30  59 SW9       29.87R WCI  38
CLOVIS         PTCLDY    46  28  49 SW9       29.86S
HOLLOMAN AFB   CLOUDY    50  29  45 SW6       30.02R
ROSWELL        CLEAR     50  25  37 W14         N/A
RUIDOSO        CLEAR     36  27  69 SW22G30   29.98R WCI  24
SANTA FE       CLOUDY    35  29  78 S6        29.92R WCI  30
TRUTH OR CONSE PTCLDY    48  29  47 W10       29.97R
TUCUMCARI      CLEAR     49  30  48 SW14      29.81R
$$



USA.gov is the U.S. government's official web portal to all federal, state and local government web resources and services.